Regional Weather Roundup
Issued by NWS Goodland, KS

Home | Current Version | Previous Version | Text Only | Print | Product List | Glossary On
Versions: 1 2 3 4 5 6 7 8 9 10 11 12 13 14 15 16 17 18 19 20 21 22 23 24 25 26 27 28 29 30 31 32 33 34 35 36 37 38 39 40 41 42 43 44 45 46 47 48 49 50
000
ASUS43 KGLD 132308
RWRGLD

GOODLAND FORECAST AREA HOURLY WEATHER ROUNDUP
NATIONAL WEATHER SERVICE GOODLAND KS
500 PM MDT SUN JUL 13 2014

...OFFICIAL OBSERVATIONS...

CITY           SKY/WX    TMP DP  RH WIND       PRES   REMARKS
GOODLAND KS    PTSUNNY   79  63  57 CALM      30.18S
HILL CITY KS   MOSUNNY   93  51  23 NE10      30.06F
IMPERIAL NEB   PTSUNNY   75  62  64 SW10      30.15R
MCCOOK NEB     CLOUDY    86  60  41 S7        30.08F
AKRON CO       TSTM      71  59  65 S6G41     30.22R
BURLINGTON CO  MOSUNNY   82  59  45 E14       30.17F
LIMON CO       SUNNY     80  52  37 SW7       30.24F
$$

...UNOFFICIAL OBSERVATIONS...

CITY           SKY/WX    TMP DP  RH WIND       PRES   REMARKS
COLBY KS       PTSUNNY   73  64  73 NW23G29   30.16R
GOVE KS          N/A     85  32  15 CALM        N/A
LENORA KS        N/A     88  32  13 MISG        N/A
NORTON KS      SUNNY     88  45  22 NE7       30.07S
OBERLIN KS     CLOUDY    81  61  50 CALM      30.09F
SHARON SPRINGS   N/A     86  61  43 CALM        N/A
ST FRANCIS KS  CLOUDY    68  63  83 E14       30.18F
TRIBUNE KS     SUNNY     82  46  28 SE5       30.17
WAKEENEY KS      N/A     92  53  26 MISG        N/A
KIT CARSON CO    N/A     85  57  38 N7          N/A
YUMA CO          N/A     68  58  71 N23G35      N/A
$$



USA.gov is the U.S. government's official web portal to all federal, state and local government web resources and services.